Location: Newark
(0.5300°S, 127.4800°E)
Time: 16:20:50
(UTC+00:00)

Courier 1B - All Passes

Search period start: 17 September 2019 00:00
Search period end: 27 September 2019 00:00
Orbit: 962 x 1209 km, 28.3° (Epoch: 16 September)

Date Brightness Start Highest point End Pass type
(mag) Time Alt. Az. Time Alt. Az. Time Alt. Az.
17 Sep - 04:06:34 10° NNW 04:11:51 19° NNE 04:17:07 10° ENE daylight
17 Sep - 05:59:02 10° NW 06:06:45 58° NNE 06:14:12 10° ESE daylight
17 Sep - 07:53:52 10° W 08:01:09 45° SSW 08:08:07 10° SE daylight
17 Sep - 09:52:19 10° SW 09:55:59 14° SSW 09:59:34 10° S visible
17 Sep - 15:41:26 10° S 15:44:37 14° SSE 15:47:47 10° SE night (unlit)
17 Sep - 17:32:54 10° SW 17:39:07 48° SSE 17:45:29 10° ENE visible
17 Sep - 19:26:57 10° W 19:33:11 45° NNW 19:39:42 10° NE visible
17 Sep - 21:24:33 10° NW 21:27:56 14° NNW 21:31:25 10° N daylight
18 Sep - 03:13:37 10° N 03:17:34 14° NNE 03:21:31 10° NE daylight
18 Sep - 05:05:20 10° NW 05:12:42 43° NNE 05:19:57 10° E daylight
18 Sep - 06:59:27 10° WNW 07:07:11 62° SSW 07:14:35 10° SE daylight
18 Sep - 08:56:38 10° WSW 09:01:50 20° SSW 09:06:52 10° SSE daylight
18 Sep - 16:39:32 10° SW 16:45:20 34° SSE 16:51:11 10° E night (unlit)
18 Sep - 18:32:58 10° WSW 18:39:23 64° NNW 18:46:03 10° NE visible
18 Sep - 20:29:22 10° WNW 20:33:50 19° NNW 20:38:27 10° NNE visible
19 Sep - 02:21:39 10° N 02:23:12 11° NNE 02:24:45 10° NNE daylight
19 Sep - 04:11:48 10° NNW 04:18:37 32° NNE 04:25:24 10° E daylight
19 Sep - 06:05:17 10° WNW 06:13:11 84° SSW 06:20:52 10° ESE daylight
19 Sep - 08:01:27 10° W 08:07:44 27° SSW 08:13:49 10° SSE daylight
19 Sep - 15:46:18 10° SSW 15:51:30 25° SSE 15:56:39 10° E night (unlit)
19 Sep - 17:39:09 10° WSW 17:45:39 90° NNW 17:52:16 10° ENE visible
19 Sep - 19:34:38 10° W 19:39:51 25° NNW 19:45:15 10° NNE visible
20 Sep - 03:18:27 10° NNW 03:24:28 24° NNE 03:30:32 10° ENE daylight
20 Sep - 05:11:19 10° NW 05:19:10 74° NNE 05:26:56 10° ESE daylight
20 Sep - 07:06:38 10° W 07:13:40 36° SSW 07:20:31 10° SE daylight
20 Sep - 09:06:16 10° SW 09:08:50 12° SSW 09:11:21 10° S daylight
20 Sep - 14:53:14 10° SSW 14:57:34 18° SSE 15:01:51 10° ESE night (unlit)
20 Sep - 16:45:30 10° SW 16:51:56 64° SSE 16:58:23 10° ENE night (unlit)
20 Sep - 18:40:12 10° W 18:45:59 34° NNW 18:51:55 10° NE visible
20 Sep - 20:40:18 10° NNW 20:40:54 10° NNW 20:41:30 10° NNW visible
21 Sep - 02:25:22 10° NNW 02:30:16 18° NNE 02:35:14 10° ENE daylight
21 Sep - 04:17:32 10° NW 04:25:09 55° NNE 04:32:47 10° ESE daylight
21 Sep - 06:12:05 10° WNW 06:19:38 49° SSW 06:27:01 10° SE daylight
21 Sep - 08:10:04 10° WSW 08:14:34 16° SSW 08:18:58 10° SSE daylight
21 Sep - 14:00:25 10° S 14:03:32 13° SSE 14:06:35 10° SE night (unlit)
21 Sep - 15:51:57 10° SW 15:58:10 45° SSE 16:04:19 10° E night (unlit)
21 Sep - 17:46:00 10° WSW 17:52:11 48° NNW 17:58:28 10° NE visible
21 Sep - 19:43:35 10° NW 19:46:45 14° NNW 19:49:59 10° N visible
22 Sep - 01:32:45 10° N 01:36:01 13° NNE 01:39:20 10° NE daylight
22 Sep - 03:23:57 10° NW 03:31:05 40° NNE 03:38:22 10° E daylight
22 Sep - 05:17:48 10° WNW 05:25:36 67° SSW 05:33:20 10° SE daylight
22 Sep - 07:14:37 10° WSW 07:20:21 22° SSW 07:26:00 10° SSE daylight
22 Sep - 13:08:58 10° SSE 13:09:22 10° SSE 13:09:46 10° SSE night (unlit)
22 Sep - 14:58:31 10° SW 15:04:22 32° SSE 15:10:04 10° E night (unlit)
22 Sep - 16:51:59 10° WSW 16:58:27 68° NNW 17:04:54 10° NE night (unlit)
22 Sep - 18:48:21 10° WNW 18:52:44 19° NNW 18:57:11 10° NNE visible
23 Sep - 02:30:33 10° NNW 02:37:01 30° NNE 02:43:40 10° E daylight
23 Sep - 04:23:45 10° WNW 04:31:34 88° SSW 04:39:29 10° ESE daylight
23 Sep - 06:19:35 10° W 06:26:12 29° SSW 06:32:45 10° SSE daylight
23 Sep - 14:05:11 10° SSW 14:10:29 24° SSE 14:15:36 10° ESE night (unlit)
23 Sep - 15:58:07 10° WSW 16:04:44 85° SSE 16:11:12 10° ENE night (unlit)
23 Sep - 17:53:35 10° W 17:58:49 26° NNW 18:04:07 10° NNE visible
24 Sep - 01:37:23 10° NNW 01:42:55 22° NNE 01:48:37 10° ENE daylight
24 Sep - 03:29:55 10° NW 03:37:33 69° NNE 03:45:25 10° ESE daylight
24 Sep - 05:24:54 10° W 05:32:06 39° SSW 05:39:17 10° SE daylight
24 Sep - 07:23:47 10° SW 07:27:19 13° SSW 07:30:50 10° S daylight
24 Sep - 13:12:00 10° SSW 13:16:28 18° SSE 13:20:49 10° ESE night (unlit)
24 Sep - 15:04:23 10° SW 15:10:59 61° SSE 15:17:22 10° ENE night (unlit)
24 Sep - 16:59:07 10° W 17:05:00 36° NNW 17:10:52 10° NE night (unlit)
25 Sep - 00:44:33 10° N 00:48:46 16° NNE 00:53:07 10° ENE daylight
25 Sep - 02:36:16 10° NW 02:43:33 51° NNE 02:51:07 10° ESE daylight
25 Sep - 04:30:30 10° WNW 04:38:01 52° SSW 04:45:39 10° SE daylight
25 Sep - 06:28:01 10° WSW 06:33:01 18° SSW 06:38:00 10° SSE daylight
25 Sep - 12:19:00 10° S 12:22:21 14° SSE 12:25:37 10° SE visible
25 Sep - 14:10:45 10° SW 14:17:12 43° SSE 14:23:21 10° E night (unlit)
25 Sep - 16:04:52 10° WSW 16:11:15 51° NNW 16:17:29 10° NE night (unlit)
25 Sep - 18:02:26 10° NW 18:05:40 14° NNW 18:08:55 10° N visible
25 Sep - 23:52:31 10° N 23:54:34 11° NNE 23:56:38 10° NE daylight
26 Sep - 01:42:50 10° NW 01:49:33 37° NNE 01:56:35 10° E daylight
26 Sep - 03:36:22 10° WNW 03:43:59 71° SSW 03:51:51 10° SE daylight
26 Sep - 05:32:47 10° WSW 05:38:47 24° SSW 05:44:48 10° SSE daylight
26 Sep - 11:26:42 10° S 11:28:07 11° SSE 11:29:30 10° SSE visible
26 Sep - 13:17:13 10° SW 13:23:19 32° SSE 13:29:07 10° E night (unlit)
26 Sep - 15:10:47 10° WSW 15:17:31 73° NNW 15:23:58 10° NE night (unlit)
26 Sep - 17:07:09 10° WNW 17:11:42 20° NNW 17:16:14 10° NNE night (unlit)
